Home > Weather > Stockport > Past weeks

Flag for United Kingdom Past Weather in Stockport, England, United Kingdom — Yesterday and Last 2 Weeks

Now
61 °F

Broken clouds.


Feels Like: 61 °F
Forecast: 53 / 64 °F
Wind: 8 mph from Northwest

Location: Manchester Airport

Current Time: Jul 30, 2016 at 10:27:23 AM

Latest Report: Jul 30, 2016 at 9:50 AM


Visibility: N/A

Pressure: 29.95 "Hg

Humidity: 72%

Dew Point: 52 °F

Location of StockportLocation

Past Weather in Stockport — Graph

°F

Stockport Temperature Yesterday

Maximum temperature yesterday: 66 °F (at 4:50 PM)
Minimum temperature yesterday: 55 °F (at 10:20 PM)
Average temperature yesterday: 61 °F

High & Low Weather Summary for the Past Weeks

 TemperatureHumidityPressure
High86 °F (Jul 19, 3:20 PM)100% (Jul 15, 1:50 PM)30.24 "Hg (Jul 15, 1:50 PM)
Low52 °F (Jul 28, 1:20 AM)43% (Jul 19, 2:50 PM)29.68 "Hg (Jul 20, 6:20 AM)
Average64 °F81%30.02 "Hg
* Reported Jul 15 8:20 AM — Jul 30 8:50 AM, Stockport, Weather by CustomWeather, © 2016

Note: Actual official high and low records may vary slightly from our data, if they occured in-between our weather recording intervals... More about our weather records

Advertising

Stockport Weather History for the Previous 24 Hours

Scroll right to see more
 ConditionsComfort  
Time TempWeatherWind HumidityBarometerVisibility
8:50 AM
Sat, Jul 30
59 °FBroken clouds.8 mph82%29.95 "HgN/A
8:20 AM59 °FBroken clouds.3 mph82%29.95 "HgN/A
7:50 AM57 °FPassing clouds.5 mph88%29.95 "HgN/A
7:20 AM57 °FPassing clouds.3 mph88%29.95 "HgN/A
6:50 AM55 °FSunny.3 mph94%29.92 "Hg10 mi
6:20 AM54 °FClear.2 mph94%29.92 "Hg10 mi
5:50 AM52 °FClear.No wind100%29.92 "Hg10 mi
5:20 AM52 °FClear.2 mph100%29.92 "Hg10 mi
4:50 AM54 °FPassing clouds.5 mph100%29.92 "HgN/A
4:20 AM54 °FPassing clouds.5 mph100%29.92 "HgN/A
3:50 AM54 °FClear.7 mph94%29.92 "Hg10 mi
3:20 AM54 °FClear.6 mph100%29.92 "Hg10 mi
2:50 AM55 °FPassing clouds.6 mph94%29.92 "HgN/A
2:20 AM54 °FPassing clouds.3 mph100%29.92 "HgN/A
1:50 AM54 °FPassing clouds.3 mph100%29.89 "HgN/A
1:20 AM54 °FPassing clouds.5 mph100%29.89 "HgN/A
12:50 AM54 °FPassing clouds.5 mph100%29.89 "Hg5 mi
12:20 AM55 °FPassing clouds.5 mph94%29.89 "HgN/A
11:50 PM
Fri, Jul 29
55 °FPassing clouds.5 mph94%29.89 "HgN/A
11:20 PM55 °FClear.2 mph94%29.89 "Hg10 mi
10:50 PM55 °FClear.5 mph94%29.89 "Hg10 mi
10:20 PM55 °FClear.6 mph94%29.89 "Hg10 mi
9:50 PM57 °FSunny.5 mph88%29.89 "Hg10 mi
9:20 PM61 °FPassing clouds.8 mph77%29.89 "HgN/A
8:50 PM61 °FPassing clouds.7 mph83%29.86 "HgN/A
8:20 PM63 °FPassing clouds.7 mph77%29.86 "HgN/A
7:50 PM64 °FPassing clouds.10 mph73%29.86 "HgN/A
7:20 PM64 °FPassing clouds.10 mph73%29.86 "HgN/A
6:50 PM64 °FScattered clouds.13 mph73%29.86 "HgN/A
6:20 PM64 °FScattered clouds.9 mph78%29.83 "HgN/A
5:50 PM64 °FScattered clouds.10 mph78%29.83 "HgN/A
5:20 PM64 °FScattered clouds.14 mph78%29.83 "HgN/A
4:50 PM66 °FScattered clouds.13 mph78%29.83 "HgN/A
4:20 PM64 °FScattered clouds.13 mph83%29.83 "HgN/A
3:50 PM64 °FScattered showers. Broken clouds.12 mph83%29.83 "HgN/A
3:20 PM64 °FScattered showers. Broken clouds.10 mph83%29.83 "HgN/A
2:50 PM63 °FBroken clouds.8 mph88%29.83 "HgN/A
2:20 PM63 °FBroken clouds.8 mph88%29.83 "HgN/A
1:50 PM63 °FBroken clouds.7 mph94%29.83 "HgN/A
1:20 PM61 °FScattered showers. Broken clouds.6 mph94%29.83 "HgN/A
12:50 PM63 °FRain. Broken clouds.10 mph88%29.80 "Hg4 mi
12:20 PM63 °FBroken clouds.13 mph88%29.80 "HgN/A
11:50 AM63 °FBroken clouds.12 mph88%29.80 "HgN/A
11:20 AM63 °FScattered showers. Broken clouds.12 mph88%29.80 "HgN/A
10:50 AM63 °FDrizzle. Partly sunny.10 mph88%29.80 "HgN/A
10:20 AM63 °FBroken clouds.8 mph88%29.80 "HgN/A
Weather by CustomWeather, © 2016

See weather overviewHow to use our weather pages